< < Back
Terminal Aerodrome Forecast


Current Version              Previous Versions:   1  2  3  4  5  6  7  8  9  

Terminal Aerodrome Forecast

988
FTUS44 KMRX 250527
TAFCHA
TAF
KCHA 250527Z 2506/2606 33003KT P6SM BKN250
     FM251400 36006KT P6SM BKN250
     FM260000 36005KT P6SM BKN100
     FM260300 36005KT 6SM -RA BKN050=

Latest METAR

070
SAUS80 KWBC 260500 RRB
MTRCHA
METAR KCHA 260453Z 31003KT 10SM BKN140 OVC200 08/01 A3009 RMK AO2 SLP186
LAST T00830011 401610033


USA.gov is the U.S. government's official web portal to all federal, state and local government web resources and services.